Location: Coleto Creek Park and Reservoir
(28.7196°N, 97.1740°W)
Time: 19:06:12
(UTC-05:00)

Hubble Space Telescope - Visible Passes

Search period start: 28 May 2017 00:00
Search period end: 07 June 2017 00:00
Orbit: 538 x 542 km, 28.5° (Epoch: 27 May)

Date Brightness Start Highest point End Pass type
(mag) Time Alt. Az. Time Alt. Az. Time Alt. Az.
28 May 1.4 21:10:21 10° SW 21:14:09 35° SSE 21:17:02 15° E visible
28 May 2.9 22:51:04 10° WSW 22:52:27 20° WSW 22:52:27 20° WSW visible
29 May 1.2 21:00:07 10° SW 21:04:03 43° SSE 21:07:59 10° E visible
29 May 2.1 22:41:01 10° W 22:43:26 34° W 22:43:26 34° W visible
30 May 1.0 20:49:57 10° WSW 20:53:58 52° SSE 20:57:59 10° E visible
30 May 1.3 22:30:59 10° W 22:34:15 54° W 22:34:15 54° W visible
31 May 0.9 20:39:49 10° WSW 20:43:54 61° SSE 20:47:59 10° E visible
31 May 0.7 22:20:57 10° W 22:24:55 81° W 22:24:55 81° W visible
01 Jun 0.6 22:10:55 10° W 22:15:04 87° S 22:15:28 72° ESE visible
02 Jun 0.6 22:00:53 10° W 22:05:01 83° S 22:05:56 53° ESE visible
03 Jun 0.6 21:50:51 10° W 21:54:59 78° S 21:56:20 41° ESE visible
04 Jun 0.7 21:40:49 10° W 21:44:56 70° S 21:46:43 32° ESE visible
05 Jun 0.9 21:30:47 10° W 21:34:52 61° SSW 21:37:04 25° ESE visible
06 Jun 1.1 21:20:46 10° W 21:24:47 52° SSW 21:27:25 20° SE visible
